SCP
0 0 0 0 0 0 0 0 0 0 0 0 0 0 0 0 0 0 0 0 0 0 0 0 0 0 0 0 0 0 0 0 0 0 0 0 0 -0 -0 -0 -0 0 -0 0 0 0 0 0 -0 0 0 0 -0 -0
0 0 0 0 0 0 0 0 0 0 0 0 0 0 0 0 0 0 0 0 0 0 0 0 0 0 -0 -0 0 0 0 0 0 0 0 0 0 -0 -0 -0 0 -0 0 0 0 0 0 0 0 0 0 0 0 0
0 0 0 0 0 0 0 0 0 0 0 0 0 0 0 0 0 0 0 0 0 0 0 0 0 0 0 0 0 0 0 0 0 0 0 0 0 -0 -0 -0 -0 -0 0 0 0 0 0 0 -0 0 0 0 0 0
0 0 0 0 0 0 0 0 0 0 0 0 0 0 0 0 0 0 0 0 0 0 0 0 0 0 0 0 0 0 0 0 0 0 0 0 0 -0 0 -0 -0 -0 0 -0 -0 0 -0 0 0 0 0 0 0 0
0 0 0 0 0 0 0 0 0 0 0 0 0 0 0 0 0 0 0 0 0 0 0 0 0 0 0 0 0 0 0 0 0 0 0 0 0 0 0 -0 -0 0 -0 0 0 0 0 0 0 -0 0 0 0 0
0 0 0 0 0 0 0 0 0 0 0 0 0 0 0 0 0 0 0 0 0 0 0 0 0 0 0 0 0 0 0 0 0 0 0 0 0 0 0 0 0 0 0 -0 0 0 -0 -0 0 0 0 0 0 0
0 0 0 0 0 0 0 0 0 0 0 0 0 0 0 0 0 0 0 0 0 0 0 0 0 0 0 0 0 0 0 0 0 0 0 0 0 0 0 -0 -0 0 0 0 0 0 -0 -0 -0 0 0 0 0 0
0 0 0 0 0 0 0 0 0 0 0 0 0 0 0 0 0 0 0 0 0 0 0 0 0 0 0 0 0 0 0 0 0 0 0 0 0 0 0 -0 0 0 0 0 -0 -0 0 0 0 0 0 0 0 0
0 0 0 0 0 0 0 0 0 0 0 0 0 0 0 0 0 0 0 0 0 0 0 0 0 0 0 0 0 0 0 0 0 0 0 0 0 0 -0 0 0 0 0 0 0 -0 -0 0 0 0 0 0 -0 -0
0 0 0 0 0 0 0 0 0 0 0 0 0 0 0 0 0 0 0 0 0 0 0 0 0 0 0 0 0 0 0 0 0 0 0 0 0 0 0 0 0 0 0 0 -0 -0 -0 -0 0 0 -0 0 0 0
0 0 0 0 0 0 0 0 0 0 0 0 0 0 0 0 0 0 0 0 0 0 0 0 0 0 0 0 0 0 0 0 0 0 0 0 0 0 0 0 0 0 0 0 0 0 0 0 0 -0 0 0 0 -0
0 0 0 0 0 0 0 0 0 0 0 0 0 0 0 0 0 0 0 0 0 0 0 0 0 0 0 0 0 0 0 0 0 0 0 0 0 0 0 0 0 0 0 0 0 -0 0 0 0 0 0 0 0 0
0 0 0 0 0 0 0 0 0 0 0 0 0 0 0 0 0 0 0 0 0 0 0 0 0 0 0 0 0 0 0 0 0 0 0 0 0 0 0 0 0 0 0 0 0 0 -0 -0 0 -0 -0 0 0 0
0 0 0 0 0 0 0 0 0 0 0 0 0 0 0 0 0 0 0 0 0 0 0 0 0 0 0 0 0 0 0 0 0 0 0 0 0 0 0 0 0 0 0 0 0 0 0 -0 -0 -0 -0 -0 -0 -0
0 0 0 0 0 0 0 0 0 0 0 0 0 0 0 0 0 0 0 0 0 0 0 0 0 0 0 0 0 0 0 0 0 0 0 0 0 0 0 0 0 0 0 0 0 0 0 0 0 0 0 -0 -0 -0
0 0 0 0 0 0 0 0 0 0 0 0 0 0 0 0 0 0 0 0 0 0 0 0 0 0 0 0 0 0 0 0 0 0 0 0 0 0 0 0 0 0 0 0 0 0 0 0 0 0 0 0 -0 -0
0 0 0 -0 -0 0 0 0 0 0 0 0 0 0 0 0 0 0 0 0 -0 0 0 0 0 0 0 0 0 0 0 0 0 0 0 0 0 0 0 0 0 0 0 0 0 0 0 0 0 -0 0 0 0 0
0 0 0 -0 0 0 0 0 0 0 0 0 0 0 0 0 0 0 0 0 0 0 0 0 0 0 0 0 0 0 0 0 0 0 0 0 0 0 0 0 0 0 0 0 0 0 0 0 -0 0 0 0 0 0
0 0 0 0 0 0 0 0 0 0 0 0 0 0 0 0 0 0 0 0 0 0 0 0 0 0 0 0 0 0 0 0 0 0 0 0 0 0 0 0 0 0 0 0 0 0 0 0 0 0 0 0 0 0
0 0 0 0 0 0 0 0 0 0 0 0 0 0 0 0 0 0 0 0 0 0 0 0 0 0 0 0 0 0 0 0 0 -0 -0 0 0 0 0 0 0 0 0 0 0 0 0 0 0 0 0 0 0 0
0 0 0 0 0 0 0 0 0 0 0 -0 -0 -0 0 0 0 0 0 0 0 0 0 0 0 0 0 0 0 -0 -0 0 0 0 0 0 0 0 0 -0 0 0 -0 -0 0 0 0 0 0 0 0 0 0 0
0 0 0 0 0 0 0 0 0 0 0 -0 0 0 0 0 0 0 0 0 0 0 0 0 0 0 0 0 0 0 0 0 0 0 0 0 0 0 0 -0 0 -0 -0 0 0 0 0 0 0 0 0 0 0 0
0 0 0 0 0 0 0 0 0 -0 0 0 0 0 0 0 0 0 0 0 0 0 -0 0 0 0 0 0 0 0 0 0 0 -0 0 -0 0 0 -0 -0 0 0 0 0 0 0 0 0 0 -0 -0 -0 -0 -0
0 0 0 0 0 0 0 0 0 0 0 0 0 0 0 -0 -0 0 0 0 0 0 0 0 0 0 0 0 0 0 0 0 -0 0 0 0 0 0 -0 0 0 0 0 0 -0 0 0 0 0 0 0 0 0 0
0 0 0 0 0 0 0 0 0 0 0 0 -0 0 0 0 0 0 0 0 -0 0 0 0 0 0 0 0 0 0 0 0 0 -0 0 0 -0 0 0 0 0 -0 0 0 0 0 0 0 0 0 0 0 0 0
0 0 0 0 0 0 0 0 0 0 0 0 0 -0 0 0 0 0 0 0 0 0 0 0 0 0 0 -0 0 0 0 0 0 0 0 0 0 0 0 -0 0 0 0 0 0 0 0 0 0 0 0 0 0 0
0 0 0 0 0 0 0 0 0 0 0 -0 -0 0 0 0 0 0 0 0 0 0 0 0 0 0 0 0 0 0 0 0 0 0 0 0 -0 0 0 0 0 0 0 0 0 -0 -0 -0 0 0 0 0 0 0
0 0 0 0 0 0 0 0 0 0 0 0 0 0 0 0 0 0 0 -0 0 0 0 0 0 0 0 0 0 0 0 0 0 0 0 0 0 0 0 0 0 0 0 0 -0 -0 -0 -0 -0 -0 -0 -0 0 0
0 0 0 0 0 0 0 0 0 0 -0 -0 0 0 0 0 0 0 -0 -0 -0 0 0 0 0 0 0 0 0 0 0 0 0 0 -0 0 0 0 0 0 0 0 0 0 0 0 -0 -0 -0 -0 -0 -0 -0 0
0 0 0 0 0 0 0 0 -0 -0 0 0 0 0 0 0 0 0 -0 -0 -0 0 0 0 0 0 0 0 0 0 0 0 0 0 0 0 0 0 0 0 0 0 0 0 0 0 0 0 0 0 -0 -0 -0 -0
0 0 0 0 0 0 0 -0 0 0 0 0 0 0 0 0 0 0 -0 -0 -0 -0 -0 -0 0 0 0 0 0 0 0 0 0 0 0 0 0 0 0 0 0 0 0 0 0 0 0 -0 0 0 0 0 0 0
0 0 0 0 0 -0 0 0 0 0 0 0 0 0 0 0 0 0 0 -0 0 -0 -0 0 0 0 0 0 0 0 0 0 0 0 0 0 0 0 0 0 0 0 0 0 0 0 0 0 0 0 0 0 0 0
0 0 0 0 0 0 -0 0 0 0 0 0 0 0 0 0 0 0 0 0 0 0 -0 -0 0 0 0 0 0 0 0 0 0 0 0 0 0 0 0 0 0 0 0 0 0 0 0 0 0 0 0 0 0 0
Wind_Speed_500mb
67 71 74 78 79 80 80 80 75 71 70 63 59 56 49 40 29 24 7 22 15 24 48 46 38 32 25 22 13 18 12 9 8 9 6 7 7 8 8 14 13 3 11 8 9 8 6 45 15 10 20 31 33 37
69 67 68 73 78 80 80 77 83 80 78 74 65 63 56 46 35 30 21 22 19 27 31 40 40 41 40 35 26 15 12 5 5 1 6 7 7 8 21 9 11 5 2 4 6 6 8 19 19 32 32 23 29 34
69 69 69 69 71 76 80 80 75 81 84 77 76 69 65 54 42 35 24 17 21 38 55 45 35 26 37 37 28 15 8 6 8 11 2 5 10 10 8 10 14 10 7 7 10 6 16 9 33 31 22 22 24 29
70 71 70 69 69 70 75 77 76 74 76 79 73 78 71 58 45 38 37 19 19 15 14 5 10 12 18 27 32 32 10 10 12 6 6 5 7 10 8 15 20 15 16 16 15 10 25 8 27 27 19 19 22 31
68 69 69 68 69 69 69 74 72 73 70 69 70 79 75 59 43 35 31 30 28 23 13 32 43 41 31 28 30 29 26 19 9 9 5 6 10 10 11 10 14 10 7 7 6 4 5 11 18 16 17 21 23 27
64 64 64 64 66 67 68 68 69 66 73 63 62 76 69 53 39 24 13 30 34 29 10 8 11 17 22 40 37 30 29 19 13 9 8 9 12 8 7 5 13 12 5 9 6 4 4 6 7 9 10 14 18 21
65 60 60 62 64 65 65 65 66 61 62 55 49 66 64 53 49 32 7 12 36 33 7 13 11 18 33 28 32 32 32 16 14 9 11 10 11 21 7 16 15 14 15 8 11 11 4 3 1 11 13 14 15 17
63 61 60 58 59 57 57 58 57 57 56 46 47 59 50 39 35 45 22 29 34 11 8 6 11 15 38 28 33 31 24 16 13 10 10 10 9 12 10 25 22 18 19 13 11 7 1 2 5 2 13 14 16 22
55 58 56 54 56 52 47 50 51 46 43 53 66 57 34 28 19 30 20 26 21 15 9 12 8 7 35 35 22 21 20 9 16 10 12 12 9 11 26 20 24 23 18 22 16 7 2 5 7 9 9 11 17 19
54 53 54 50 48 46 38 31 29 42 59 79 68 27 18 20 20 27 24 22 24 19 16 12 33 16 31 32 32 18 16 9 7 14 12 7 13 46 39 15 24 23 16 17 20 22 12 1 6 9 11 13 17 20
48 46 50 47 42 40 26 34 38 68 87 69 20 10 27 47 30 15 14 17 18 10 18 21 52 24 21 10 9 5 5 5 7 10 8 7 8 15 26 39 31 23 19 14 8 11 13 9 7 7 10 14 16 18
48 42 44 40 36 36 22 51 72 82 60 40 30 46 51 19 14 11 9 12 15 12 26 23 28 52 25 10 9 11 6 4 11 16 4 6 3 20 9 22 31 27 23 18 16 14 13 12 11 11 11 12 15 17
46 39 39 38 34 30 15 59 84 67 58 58 17 14 13 12 12 15 21 11 12 13 19 29 22 33 12 12 8 9 11 10 7 7 7 5 8 8 20 24 8 24 26 22 19 16 15 15 13 12 12 12 13 16
44 37 36 34 29 25 23 78 81 69 48 11 14 14 9 12 13 12 16 9 23 26 40 36 27 15 12 17 8 10 11 7 7 10 8 9 13 12 19 34 26 17 24 22 18 16 14 12 13 13 13 12 12 14
38 31 32 31 28 28 35 62 60 70 13 11 13 12 18 20 29 24 45 51 36 30 47 41 26 16 14 9 10 11 12 12 11 7 7 21 10 8 23 31 34 31 27 23 19 17 13 12 10 12 12 14 14 11
27 24 32 26 23 25 34 63 61 39 14 10 15 14 18 31 33 34 37 27 20 30 42 34 8 9 13 9 16 14 9 8 5 9 25 16 8 7 17 26 34 27 25 23 20 17 14 10 8 10 10 12 11 9
22 31 18 19 24 24 44 49 37 13 10 7 14 19 11 14 22 17 20 18 35 33 14 12 10 16 10 9 13 8 10 9 18 13 6 1 9 16 24 32 38 32 28 24 21 17 13 11 7 4 9 7 8 10
28 18 21 22 33 42 38 16 12 12 12 15 15 13 13 10 16 13 35 39 32 31 37 11 13 8 8 12 9 8 17 19 11 5 9 15 16 18 31 38 34 33 28 25 21 19 15 9 7 7 8 9 3 7
23 18 17 35 46 31 9 10 9 9 6 14 16 10 11 15 22 23 32 22 20 22 9 9 10 9 9 8 18 16 16 17 10 10 10 9 17 26 32 41 32 31 27 24 22 17 15 9 1 6 12 9 5 6
17 17 26 40 45 8 8 7 11 4 10 15 18 19 29 25 29 29 25 18 20 22 15 9 9 19 9 3 15 24 22 15 12 17 23 24 28 32 25 33 32 31 25 22 19 16 14 13 6 8 9 8 6 3
18 23 38 54 9 8 7 10 13 11 4 9 20 28 27 41 46 42 33 30 34 36 17 29 28 35 4 1 17 15 14 13 11 12 22 20 29 23 24 25 25 25 20 21 22 23 15 11 9 8 6 7 3 3
54 46 38 12 6 2 3 11 10 12 8 11 12 33 25 31 31 34 35 32 37 35 34 38 35 38 32 26 17 17 26 20 13 11 33 41 36 22 25 27 26 21 17 19 18 13 14 13 7 11 13 7 10 9
39 35 17 6 1 5 8 8 9 11 7 5 12 11 13 21 30 23 11 32 39 41 43 41 34 30 29 25 20 19 25 21 14 15 42 50 29 20 26 25 21 18 17 10 11 17 18 14 8 13 9 9 10 8
17 5 3 5 7 3 6 6 7 5 6 11 7 15 8 8 13 24 13 35 39 41 45 35 29 31 32 33 31 29 30 24 15 11 39 30 30 28 28 27 20 16 18 17 20 16 10 14 13 14 13 11 10 9
3 1 3 4 3 5 5 4 8 8 10 13 20 14 6 9 8 9 17 22 27 32 32 36 36 33 35 38 34 32 26 22 26 14 39 42 39 31 30 25 21 22 12 12 13 15 15 16 18 17 17 15 14 13
0 7 5 6 6 6 7 5 10 13 5 8 11 2 3 4 5 3 4 13 13 12 3 13 30 34 33 35 32 27 36 29 34 18 38 48 41 36 33 30 24 14 13 15 18 18 20 21 20 21 19 22 21 17
3 4 9 11 13 6 6 10 15 7 6 3 3 3 1 3 4 9 18 21 24 20 11 4 5 5 21 21 14 16 42 35 31 29 33 36 36 38 32 27 24 21 20 19 20 21 24 24 24 21 20 19 18 13
7 10 5 11 6 5 7 7 5 3 8 10 12 5 5 6 5 12 11 19 10 9 11 13 7 7 12 11 18 26 36 28 27 28 29 25 29 34 25 22 35 31 25 23 23 24 24 24 24 22 20 17 16 14
7 4 2 0 4 6 5 7 7 6 6 7 4 4 4 9 27 25 20 13 8 4 4 9 9 8 12 12 17 21 26 24 31 32 32 30 35 37 36 36 32 27 27 29 26 24 25 23 22 20 19 15 14 14
3 2 1 3 3 5 5 9 9 5 6 12 17 22 21 27 43 28 49 38 16 10 6 4 1 11 18 19 26 29 26 21 12 20 19 23 35 34 30 28 28 27 26 27 26 31 31 26 26 22 20 16 15 13
2 5 5 5 1 2 18 18 25 32 28 26 23 19 11 13 33 46 49 53 45 23 19 18 17 24 29 29 22 22 28 17 31 22 22 19 24 34 25 27 27 27 25 25 25 24 26 25 21 22 21 20 18 17
6 7 5 6 5 15 12 12 10 11 12 8 6 10 15 16 14 22 35 36 49 55 51 48 47 42 30 22 21 23 28 29 22 27 23 37 40 35 29 23 23 22 28 27 25 24 26 27 24 21 20 21 20 21
5 7 11 8 4 2 18 15 8 7 10 15 11 5 18 11 11 13 24 35 29 34 43 48 50 52 47 43 43 41 37 30 18 12 7 17 18 16 16 28 34 34 25 16 21 29 31 34 31 27 26 26 27 28
Wind_Direction_500mb
288 283 278 273 268 264 264 259 258 262 263 270 270 268 265 267 259 254 227 239 239 266 275 278 273 269 272 244 260 350 349 38 18 10 326 344 302 303 291 326 317 24 331 344 318 277 319 17 356 26 312 322 353 4
286 288 285 278 273 268 263 264 256 255 258 257 262 265 259 258 250 243 246 232 247 255 260 284 272 259 250 255 284 275 313 103 98 85 357 323 300 303 299 301 341 330 37 266 227 289 14 7 346 333 342 356 11 11
284 284 286 287 278 271 267 263 263 256 253 257 254 256 254 250 244 238 216 236 261 280 290 272 262 269 236 232 226 246 92 123 107 102 178 266 268 285 292 324 330 326 33 267 282 157 340 27 358 359 5 14 17 10
282 283 285 288 285 277 268 264 262 262 259 254 254 252 250 238 236 227 226 224 239 281 279 351 236 239 219 216 215 218 182 133 132 145 176 257 264 287 290 304 292 280 331 303 287 38 334 61 355 358 5 10 11 359
284 285 285 284 286 279 275 263 261 260 262 259 255 249 240 228 227 224 224 230 226 226 285 303 292 261 221 201 203 204 211 215 167 166 184 222 261 286 266 278 270 200 325 321 296 110 257 292 336 356 10 12 11 12
284 288 286 285 283 285 275 269 259 259 256 259 253 245 227 216 204 190 250 238 218 223 255 276 283 236 193 216 208 196 201 195 190 177 207 236 247 254 271 244 226 138 93 348 159 122 1 278 14 10 10 5 4 6
281 287 289 288 286 284 274 271 259 259 255 253 253 227 212 203 194 163 205 172 179 186 205 279 256 199 195 186 190 204 183 196 200 203 216 227 240 199 264 263 227 172 128 78 147 160 241 2 203 39 11 2 11 15
282 283 290 292 291 284 276 272 259 252 250 232 221 201 193 197 202 211 176 149 176 167 217 256 264 192 183 192 195 180 173 182 203 227 218 223 197 209 255 256 181 192 160 171 150 183 104 282 242 23 11 12 16 16
279 283 287 290 294 281 275 262 253 238 224 204 178 169 170 186 198 209 204 209 201 228 238 218 240 198 176 203 182 174 168 182 178 217 226 201 193 222 237 253 199 193 201 196 181 196 192 27 14 14 3 356 351 15
274 280 287 288 294 287 270 247 224 209 180 168 164 147 156 182 167 158 156 177 195 209 233 242 236 249 190 190 180 185 183 211 196 216 202 212 252 247 249 239 217 215 184 173 196 217 211 104 36 34 32 27 19 16
271 278 284 285 292 282 282 251 205 181 175 167 153 160 141 150 149 193 183 192 185 225 220 228 224 229 235 200 152 231 202 216 245 151 217 197 256 289 240 202 212 196 167 176 113 100 93 100 96 70 45 40 38 31
265 271 282 280 287 282 296 206 182 179 177 159 148 136 139 164 188 195 211 198 196 228 184 206 195 207 205 146 196 192 217 247 246 143 221 263 353 1 70 181 184 168 151 148 145 131 114 104 94 80 65 49 43 40
264 264 275 274 280 282 236 185 180 177 144 133 123 137 169 162 206 215 187 203 198 200 160 178 160 185 150 176 209 207 200 227 216 202 213 221 173 89 156 174 179 159 154 150 142 132 122 106 91 77 63 54 56 46
258 253 269 269 267 258 196 180 178 162 134 124 152 145 223 178 232 210 218 212 205 203 152 154 154 180 178 194 202 194 207 229 229 202 227 157 181 195 167 167 167 182 160 157 151 141 132 119 98 82 70 64 57 45
249 245 270 262 248 237 207 187 177 167 142 158 165 191 213 227 246 216 217 234 220 177 159 165 184 181 198 200 218 209 196 225 218 203 117 130 114 155 183 187 193 192 172 165 164 156 147 136 118 95 77 66 58 17
231 249 261 253 222 230 202 186 174 182 170 199 208 210 211 200 235 245 213 239 180 155 176 171 174 200 208 219 197 198 223 242 63 102 131 134 147 212 206 196 180 193 178 171 168 160 151 138 132 120 92 63 47 40
205 243 252 245 225 199 177 171 167 173 195 227 213 220 241 267 274 219 250 199 212 186 180 196 200 215 197 223 199 194 233 82 117 127 164 45 276 247 214 199 185 182 176 173 169 162 150 142 136 149 158 89 73 10
215 248 234 205 174 177 162 149 137 180 213 209 221 192 214 250 301 290 256 240 219 191 207 225 300 237 236 230 205 110 98 110 102 67 302 287 266 227 187 191 179 173 175 173 171 166 164 174 223 216 171 153 81 45
225 231 192 185 175 138 113 149 159 195 198 181 206 235 281 291 293 264 283 218 204 220 234 206 238 246 254 289 85 91 106 92 55 1 335 314 211 188 181 171 170 170 176 173 177 186 190 189 129 159 178 192 202 22
217 219 199 178 156 134 118 136 169 209 184 197 205 222 232 253 273 270 234 238 218 218 214 231 227 258 338 96 97 129 123 108 93 94 106 110 128 153 160 160 171 176 172 176 183 183 196 198 199 182 149 163 175 158
198 156 165 162 102 95 123 159 189 212 213 200 199 210 217 230 244 252 237 221 234 237 243 247 251 247 225 4 113 136 152 137 127 116 168 161 150 156 173 185 178 173 184 194 205 211 214 198 200 173 157 134 121 118
139 156 148 90 85 88 272 201 175 178 217 238 244 208 214 218 228 228 234 238 228 225 236 246 242 252 257 252 251 247 156 142 141 131 185 169 177 207 200 198 182 195 203 210 212 195 181 165 186 160 158 118 136 134
112 117 112 85 119 202 240 188 196 199 223 228 207 203 217 222 230 219 228 233 235 235 235 234 239 249 259 263 245 181 152 139 131 177 189 185 192 192 198 189 198 198 209 191 188 170 167 178 169 161 140 136 136 130
100 69 106 174 172 215 154 198 239 261 256 242 227 227 229 231 207 181 221 229 229 224 221 218 218 222 224 231 242 199 170 157 119 137 170 178 201 198 198 203 196 200 199 192 140 139 146 163 160 150 146 150 152 153
97 21 118 305 230 206 198 225 210 214 235 234 238 245 131 192 182 229 235 244 245 214 207 198 207 211 213 213 211 221 176 168 162 146 177 172 194 199 204 195 191 174 158 158 149 141 146 139 147 149 146 145 145 141
224 183 184 206 203 206 220 204 222 221 271 242 236 210 89 217 244 248 68 20 354 40 288 241 201 200 213 218 206 213 185 181 170 173 194 207 210 207 188 174 157 147 171 161 151 155 153 151 151 148 150 158 150 136
306 238 195 198 252 251 292 253 258 251 255 295 50 353 175 27 356 27 0 7 0 350 348 312 330 253 223 220 197 167 174 175 181 193 195 193 190 190 191 176 173 170 168 155 153 160 157 155 151 150 151 153 154 142
323 23 306 184 225 234 250 271 248 344 47 19 355 23 55 24 346 331 332 340 329 28 60 54 99 216 274 222 209 173 170 178 177 187 179 193 203 189 172 176 165 160 155 155 156 157 159 158 155 157 156 158 160 159
267 278 304 10 298 294 296 354 23 58 25 15 32 63 65 26 31 53 51 71 170 185 89 36 43 59 76 113 158 181 187 186 188 178 176 191 189 137 142 149 145 148 154 161 160 163 158 161 161 163 164 164 168 170
114 192 277 272 286 324 333 321 341 313 105 120 106 99 80 73 51 76 43 46 53 57 29 8 346 127 120 118 122 144 160 172 166 181 207 172 153 150 150 149 153 160 161 163 166 178 181 174 176 172 175 178 183 187
28 204 266 257 274 295 99 88 108 100 89 98 97 84 85 110 52 50 58 48 52 64 80 87 108 141 135 129 119 137 124 151 163 172 159 138 148 154 154 157 160 169 171 174 178 183 183 183 190 192 198 201 208 209
217 199 266 334 71 109 76 78 71 60 49 67 81 116 102 77 56 39 45 46 53 56 63 72 80 78 94 119 126 125 147 147 147 153 155 150 147 138 117 126 162 170 183 186 191 202 204 201 206 211 215 220 223 227
134 209 264 288 56 37 124 136 144 166 180 168 199 179 83 73 67 25 47 56 58 53 51 52 57 63 69 75 76 77 82 88 124 196 154 174 169 173 180 175 179 180 171 164 202 216 217 214 216 222 231 236 234 233
Wind_Speed_850mb
67 71 74 78 79 80 80 80 75 71 70 63 59 56 49 40 29 24 7 22 15 24 48 46 38 32 25 22 13 18 12 9 8 9 6 7 7 8 8 14 13 3 11 8 9 8 6 45 15 10 20 31 33 37
69 67 68 73 78 80 80 77 83 80 78 74 65 63 56 46 35 30 21 22 19 27 31 40 40 41 40 35 26 15 12 5 5 1 6 7 7 8 21 9 11 5 2 4 6 6 8 19 19 32 32 23 29 34
69 69 69 69 71 76 80 80 75 81 84 77 76 69 65 54 42 35 24 17 21 38 55 45 35 26 37 37 28 15 8 6 8 11 2 5 10 10 8 10 14 10 7 7 10 6 16 9 33 31 22 22 24 29
70 71 70 69 69 70 75 77 76 74 76 79 73 78 71 58 45 38 37 19 19 15 14 5 10 12 18 27 32 32 10 10 12 6 6 5 7 10 8 15 20 15 16 16 15 10 25 8 27 27 19 19 22 31
68 69 69 68 69 69 69 74 72 73 70 69 70 79 75 59 43 35 31 30 28 23 13 32 43 41 31 28 30 29 26 19 9 9 5 6 10 10 11 10 14 10 7 7 6 4 5 11 18 16 17 21 23 27
64 64 64 64 66 67 68 68 69 66 73 63 62 76 69 53 39 24 13 30 34 29 10 8 11 17 22 40 37 30 29 19 13 9 8 9 12 8 7 5 13 12 5 9 6 4 4 6 7 9 10 14 18 21
65 60 60 62 64 65 65 65 66 61 62 55 49 66 64 53 49 32 7 12 36 33 7 13 11 18 33 28 32 32 32 16 14 9 11 10 11 21 7 16 15 14 15 8 11 11 4 3 1 11 13 14 15 17
63 61 60 58 59 57 57 58 57 57 56 46 47 59 50 39 35 45 22 29 34 11 8 6 11 15 38 28 33 31 24 16 13 10 10 10 9 12 10 25 22 18 19 13 11 7 1 2 5 2 13 14 16 22
55 58 56 54 56 52 47 50 51 46 43 53 66 57 34 28 19 30 20 26 21 15 9 12 8 7 35 35 22 21 20 9 16 10 12 12 9 11 26 20 24 23 18 22 16 7 2 5 7 9 9 11 17 19
54 53 54 50 48 46 38 31 29 42 59 79 68 27 18 20 20 27 24 22 24 19 16 12 33 16 31 32 32 18 16 9 7 14 12 7 13 46 39 15 24 23 16 17 20 22 12 1 6 9 11 13 17 20
48 46 50 47 42 40 26 34 38 68 87 69 20 10 27 47 30 15 14 17 18 10 18 21 52 24 21 10 9 5 5 5 7 10 8 7 8 15 26 39 31 23 19 14 8 11 13 9 7 7 10 14 16 18
48 42 44 40 36 36 22 51 72 82 60 40 30 46 51 19 14 11 9 12 15 12 26 23 28 52 25 10 9 11 6 4 11 16 4 6 3 20 9 22 31 27 23 18 16 14 13 12 11 11 11 12 15 17
46 39 39 38 34 30 15 59 84 67 58 58 17 14 13 12 12 15 21 11 12 13 19 29 22 33 12 12 8 9 11 10 7 7 7 5 8 8 20 24 8 24 26 22 19 16 15 15 13 12 12 12 13 16
44 37 36 34 29 25 23 78 81 69 48 11 14 14 9 12 13 12 16 9 23 26 40 36 27 15 12 17 8 10 11 7 7 10 8 9 13 12 19 34 26 17 24 22 18 16 14 12 13 13 13 12 12 14
38 31 32 31 28 28 35 62 60 70 13 11 13 12 18 20 29 24 45 51 36 30 47 41 26 16 14 9 10 11 12 12 11 7 7 21 10 8 23 31 34 31 27 23 19 17 13 12 10 12 12 14 14 11
27 24 32 26 23 25 34 63 61 39 14 10 15 14 18 31 33 34 37 27 20 30 42 34 8 9 13 9 16 14 9 8 5 9 25 16 8 7 17 26 34 27 25 23 20 17 14 10 8 10 10 12 11 9
22 31 18 19 24 24 44 49 37 13 10 7 14 19 11 14 22 17 20 18 35 33 14 12 10 16 10 9 13 8 10 9 18 13 6 1 9 16 24 32 38 32 28 24 21 17 13 11 7 4 9 7 8 10
28 18 21 22 33 42 38 16 12 12 12 15 15 13 13 10 16 13 35 39 32 31 37 11 13 8 8 12 9 8 17 19 11 5 9 15 16 18 31 38 34 33 28 25 21 19 15 9 7 7 8 9 3 7
23 18 17 35 46 31 9 10 9 9 6 14 16 10 11 15 22 23 32 22 20 22 9 9 10 9 9 8 18 16 16 17 10 10 10 9 17 26 32 41 32 31 27 24 22 17 15 9 1 6 12 9 5 6
17 17 26 40 45 8 8 7 11 4 10 15 18 19 29 25 29 29 25 18 20 22 15 9 9 19 9 3 15 24 22 15 12 17 23 24 28 32 25 33 32 31 25 22 19 16 14 13 6 8 9 8 6 3
18 23 38 54 9 8 7 10 13 11 4 9 20 28 27 41 46 42 33 30 34 36 17 29 28 35 4 1 17 15 14 13 11 12 22 20 29 23 24 25 25 25 20 21 22 23 15 11 9 8 6 7 3 3
54 46 38 12 6 2 3 11 10 12 8 11 12 33 25 31 31 34 35 32 37 35 34 38 35 38 32 26 17 17 26 20 13 11 33 41 36 22 25 27 26 21 17 19 18 13 14 13 7 11 13 7 10 9
39 35 17 6 1 5 8 8 9 11 7 5 12 11 13 21 30 23 11 32 39 41 43 41 34 30 29 25 20 19 25 21 14 15 42 50 29 20 26 25 21 18 17 10 11 17 18 14 8 13 9 9 10 8
17 5 3 5 7 3 6 6 7 5 6 11 7 15 8 8 13 24 13 35 39 41 45 35 29 31 32 33 31 29 30 24 15 11 39 30 30 28 28 27 20 16 18 17 20 16 10 14 13 14 13 11 10 9
3 1 3 4 3 5 5 4 8 8 10 13 20 14 6 9 8 9 17 22 27 32 32 36 36 33 35 38 34 32 26 22 26 14 39 42 39 31 30 25 21 22 12 12 13 15 15 16 18 17 17 15 14 13
0 7 5 6 6 6 7 5 10 13 5 8 11 2 3 4 5 3 4 13 13 12 3 13 30 34 33 35 32 27 36 29 34 18 38 48 41 36 33 30 24 14 13 15 18 18 20 21 20 21 19 22 21 17
3 4 9 11 13 6 6 10 15 7 6 3 3 3 1 3 4 9 18 21 24 20 11 4 5 5 21 21 14 16 42 35 31 29 33 36 36 38 32 27 24 21 20 19 20 21 24 24 24 21 20 19 18 13
7 10 5 11 6 5 7 7 5 3 8 10 12 5 5 6 5 12 11 19 10 9 11 13 7 7 12 11 18 26 36 28 27 28 29 25 29 34 25 22 35 31 25 23 23 24 24 24 24 22 20 17 16 14
7 4 2 0 4 6 5 7 7 6 6 7 4 4 4 9 27 25 20 13 8 4 4 9 9 8 12 12 17 21 26 24 31 32 32 30 35 37 36 36 32 27 27 29 26 24 25 23 22 20 19 15 14 14
3 2 1 3 3 5 5 9 9 5 6 12 17 22 21 27 43 28 49 38 16 10 6 4 1 11 18 19 26 29 26 21 12 20 19 23 35 34 30 28 28 27 26 27 26 31 31 26 26 22 20 16 15 13
2 5 5 5 1 2 18 18 25 32 28 26 23 19 11 13 33 46 49 53 45 23 19 18 17 24 29 29 22 22 28 17 31 22 22 19 24 34 25 27 27 27 25 25 25 24 26 25 21 22 21 20 18 17
6 7 5 6 5 15 12 12 10 11 12 8 6 10 15 16 14 22 35 36 49 55 51 48 47 42 30 22 21 23 28 29 22 27 23 37 40 35 29 23 23 22 28 27 25 24 26 27 24 21 20 21 20 21
5 7 11 8 4 2 18 15 8 7 10 15 11 5 18 11 11 13 24 35 29 34 43 48 50 52 47 43 43 41 37 30 18 12 7 17 18 16 16 28 34 34 25 16 21 29 31 34 31 27 26 26 27 28
Wind_Direction_850mb
288 283 278 273 268 264 264 259 258 262 263 270 270 268 265 267 259 254 227 239 239 266 275 278 273 269 272 244 260 350 349 38 18 10 326 344 302 303 291 326 317 24 331 344 318 277 319 17 356 26 312 322 353 4
286 288 285 278 273 268 263 264 256 255 258 257 262 265 259 258 250 243 246 232 247 255 260 284 272 259 250 255 284 275 313 103 98 85 357 323 300 303 299 301 341 330 37 266 227 289 14 7 346 333 342 356 11 11
284 284 286 287 278 271 267 263 263 256 253 257 254 256 254 250 244 238 216 236 261 280 290 272 262 269 236 232 226 246 92 123 107 102 178 266 268 285 292 324 330 326 33 267 282 157 340 27 358 359 5 14 17 10
282 283 285 288 285 277 268 264 262 262 259 254 254 252 250 238 236 227 226 224 239 281 279 351 236 239 219 216 215 218 182 133 132 145 176 257 264 287 290 304 292 280 331 303 287 38 334 61 355 358 5 10 11 359
284 285 285 284 286 279 275 263 261 260 262 259 255 249 240 228 227 224 224 230 226 226 285 303 292 261 221 201 203 204 211 215 167 166 184 222 261 286 266 278 270 200 325 321 296 110 257 292 336 356 10 12 11 12
284 288 286 285 283 285 275 269 259 259 256 259 253 245 227 216 204 190 250 238 218 223 255 276 283 236 193 216 208 196 201 195 190 177 207 236 247 254 271 244 226 138 93 348 159 122 1 278 14 10 10 5 4 6
281 287 289 288 286 284 274 271 259 259 255 253 253 227 212 203 194 163 205 172 179 186 205 279 256 199 195 186 190 204 183 196 200 203 216 227 240 199 264 263 227 172 128 78 147 160 241 2 203 39 11 2 11 15
282 283 290 292 291 284 276 272 259 252 250 232 221 201 193 197 202 211 176 149 176 167 217 256 264 192 183 192 195 180 173 182 203 227 218 223 197 209 255 256 181 192 160 171 150 183 104 282 242 23 11 12 16 16
279 283 287 290 294 281 275 262 253 238 224 204 178 169 170 186 198 209 204 209 201 228 238 218 240 198 176 203 182 174 168 182 178 217 226 201 193 222 237 253 199 193 201 196 181 196 192 27 14 14 3 356 351 15
274 280 287 288 294 287 270 247 224 209 180 168 164 147 156 182 167 158 156 177 195 209 233 242 236 249 190 190 180 185 183 211 196 216 202 212 252 247 249 239 217 215 184 173 196 217 211 104 36 34 32 27 19 16
271 278 284 285 292 282 282 251 205 181 175 167 153 160 141 150 149 193 183 192 185 225 220 228 224 229 235 200 152 231 202 216 245 151 217 197 256 289 240 202 212 196 167 176 113 100 93 100 96 70 45 40 38 31
265 271 282 280 287 282 296 206 182 179 177 159 148 136 139 164 188 195 211 198 196 228 184 206 195 207 205 146 196 192 217 247 246 143 221 263 353 1 70 181 184 168 151 148 145 131 114 104 94 80 65 49 43 40
264 264 275 274 280 282 236 185 180 177 144 133 123 137 169 162 206 215 187 203 198 200 160 178 160 185 150 176 209 207 200 227 216 202 213 221 173 89 156 174 179 159 154 150 142 132 122 106 91 77 63 54 56 46
258 253 269 269 267 258 196 180 178 162 134 124 152 145 223 178 232 210 218 212 205 203 152 154 154 180 178 194 202 194 207 229 229 202 227 157 181 195 167 167 167 182 160 157 151 141 132 119 98 82 70 64 57 45
249 245 270 262 248 237 207 187 177 167 142 158 165 191 213 227 246 216 217 234 220 177 159 165 184 181 198 200 218 209 196 225 218 203 117 130 114 155 183 187 193 192 172 165 164 156 147 136 118 95 77 66 58 17
231 249 261 253 222 230 202 186 174 182 170 199 208 210 211 200 235 245 213 239 180 155 176 171 174 200 208 219 197 198 223 242 63 102 131 134 147 212 206 196 180 193 178 171 168 160 151 138 132 120 92 63 47 40
205 243 252 245 225 199 177 171 167 173 195 227 213 220 241 267 274 219 250 199 212 186 180 196 200 215 197 223 199 194 233 82 117 127 164 45 276 247 214 199 185 182 176 173 169 162 150 142 136 149 158 89 73 10
215 248 234 205 174 177 162 149 137 180 213 209 221 192 214 250 301 290 256 240 219 191 207 225 300 237 236 230 205 110 98 110 102 67 302 287 266 227 187 191 179 173 175 173 171 166 164 174 223 216 171 153 81 45
225 231 192 185 175 138 113 149 159 195 198 181 206 235 281 291 293 264 283 218 204 220 234 206 238 246 254 289 85 91 106 92 55 1 335 314 211 188 181 171 170 170 176 173 177 186 190 189 129 159 178 192 202 22
217 219 199 178 156 134 118 136 169 209 184 197 205 222 232 253 273 270 234 238 218 218 214 231 227 258 338 96 97 129 123 108 93 94 106 110 128 153 160 160 171 176 172 176 183 183 196 198 199 182 149 163 175 158
198 156 165 162 102 95 123 159 189 212 213 200 199 210 217 230 244 252 237 221 234 237 243 247 251 247 225 4 113 136 152 137 127 116 168 161 150 156 173 185 178 173 184 194 205 211 214 198 200 173 157 134 121 118
139 156 148 90 85 88 272 201 175 178 217 238 244 208 214 218 228 228 234 238 228 225 236 246 242 252 257 252 251 247 156 142 141 131 185 169 177 207 200 198 182 195 203 210 212 195 181 165 186 160 158 118 136 134
112 117 112 85 119 202 240 188 196 199 223 228 207 203 217 222 230 219 228 233 235 235 235 234 239 249 259 263 245 181 152 139 131 177 189 185 192 192 198 189 198 198 209 191 188 170 167 178 169 161 140 136 136 130
100 69 106 174 172 215 154 198 239 261 256 242 227 227 229 231 207 181 221 229 229 224 221 218 218 222 224 231 242 199 170 157 119 137 170 178 201 198 198 203 196 200 199 192 140 139 146 163 160 150 146 150 152 153
97 21 118 305 230 206 198 225 210 214 235 234 238 245 131 192 182 229 235 244 245 214 207 198 207 211 213 213 211 221 176 168 162 146 177 172 194 199 204 195 191 174 158 158 149 141 146 139 147 149 146 145 145 141
224 183 184 206 203 206 220 204 222 221 271 242 236 210 89 217 244 248 68 20 354 40 288 241 201 200 213 218 206 213 185 181 170 173 194 207 210 207 188 174 157 147 171 161 151 155 153 151 151 148 150 158 150 136
306 238 195 198 252 251 292 253 258 251 255 295 50 353 175 27 356 27 0 7 0 350 348 312 330 253 223 220 197 167 174 175 181 193 195 193 190 190 191 176 173 170 168 155 153 160 157 155 151 150 151 153 154 142
323 23 306 184 225 234 250 271 248 344 47 19 355 23 55 24 346 331 332 340 329 28 60 54 99 216 274 222 209 173 170 178 177 187 179 193 203 189 172 176 165 160 155 155 156 157 159 158 155 157 156 158 160 159
267 278 304 10 298 294 296 354 23 58 25 15 32 63 65 26 31 53 51 71 170 185 89 36 43 59 76 113 158 181 187 186 188 178 176 191 189 137 142 149 145 148 154 161 160 163 158 161 161 163 164 164 168 170
114 192 277 272 286 324 333 321 341 313 105 120 106 99 80 73 51 76 43 46 53 57 29 8 346 127 120 118 122 144 160 172 166 181 207 172 153 150 150 149 153 160 161 163 166 178 181 174 176 172 175 178 183 187
28 204 266 257 274 295 99 88 108 100 89 98 97 84 85 110 52 50 58 48 52 64 80 87 108 141 135 129 119 137 124 151 163 172 159 138 148 154 154 157 160 169 171 174 178 183 183 183 190 192 198 201 208 209
217 199 266 334 71 109 76 78 71 60 49 67 81 116 102 77 56 39 45 46 53 56 63 72 80 78 94 119 126 125 147 147 147 153 155 150 147 138 117 126 162 170 183 186 191 202 204 201 206 211 215 220 223 227
134 209 264 288 56 37 124 136 144 166 180 168 199 179 83 73 67 25 47 56 58 53 51 52 57 63 69 75 76 77 82 88 124 196 154 174 169 173 180 175 179 180 171 164 202 216 217 214 216 222 231 236 234 233